AirNav   Everest Fuels
 
 1283 users online  

51M Oscoda County Dennis Kauffman Memorial Airport
Mio, Michigan, USA

GOING TO MIO?


FAA INFORMATION EFFECTIVE 14 JULY 2022

Location

FAA Identifier: 51M
Lat/Long: 44-40-29.4000N 084-07-19.3500W
44-40.490000N 084-07.322500W
44.6748333,-84.1220417
(estimated)
Elevation: 1033 ft. / 315 m (estimated)
Variation: 05W (1985)
From city: 2 miles N of MIO, MI
Time zone: UTC -4 (UTC -5 during Standard Time)
Zip code: 48647

Airport Operations

Airport use: Open to the public
Activation date: 07/1989
Control tower: no
ARTCC: MINNEAPOLIS CENTER
FSS: LANSING FLIGHT SERVICE STATION
NOTAMs facility: LAN (NOTAM-D service available)
Attendance: UNATNDD
Wind indicator: lighted
Segmented circle: yes
Lights: ACTVT PAPI RWY 10, PAPI RWY 28, MIRL RWY 10/28 - CTAF.
Beacon: white-green (lighted land airport)
Operates sunset to sunrise.

Airport Communications

CTAF: 122.9

Nearby radio navigation aids

VOR radial/distance  VOR name  Freq  Var
CGGr097/(25.9)GRAYLING VOR109.8006W
GLRr135/32.0GAYLORD VOR/DME109.2006W
APNr231/34.3ALPENA VORTAC108.8007W

 
NDB name  Hdg/Dist  Freq  Var  ID
GRAYLING105/30.435906WGYG --. -.-- --.

Airport Services

Fuel available: 100LL
100LL:SELF-SERVE.
Parking: tiedowns

Runway Information

Runway 10/28

Dimensions: 3000 x 75 ft. / 914 x 23 m
Surface: asphalt, in excellent condition
Runway edge lights: medium intensity
RUNWAY 10  RUNWAY 28
Latitude: 44-40.486667N44-40.493333N
Longitude: 084-07.668333W084-06.976667W
Elevation: 1033.0 ft.1032.0 ft.
Traffic pattern: leftleft
Runway heading: 094 magnetic, 089 true274 magnetic, 269 true
Markings: basic, in good conditionbasic, in good condition
Visual slope indicator: 4-light PAPI on left (3.00 degrees glide path)4-light PAPI on left (4.00 degrees glide path)
UNUSBL BYD 6 DEG RIGHT OF CNTRLN.
Touchdown point: yes, no lightsyes, no lights
Obstructions: 68 ft. trees, 1600 ft. from runway, 20:1 slope to clear71 ft. trees, 2240 ft. from runway, 28:1 slope to clear

Airport Ownership and Management from official FAA records

Ownership: Publicly-owned
Owner: OSCODA COUNTY
311 MORENCI
MIO, MI 48619
Phone 989-826-1130
Manager: DAVID E. KAUFFMAN
191 S. MT TOM RD
MIO, MI 48647
Phone 989-848-2446

Airport Operational Statistics

Aircraft based on the field: 9
Single engine airplanes: 8
Helicopters: 1
    
Aircraft operations: avg 67/month *
50% transient general aviation
50% local general aviation
* for 12-month period ending 31 December 2017

Additional Remarks

SHELTER ACCESS, PRESS V, THEN III-II SIMULTANEOUS, THEN I.
DEER ON AND INVOF ARPT.
UNATTENDED OFFICE PH 989-826-6864.
FOR CD CTC MINNEAPOLIS ARTCC AT 651-463-5588.

Instrument Procedures

There are no published instrument procedures at 51M.

Some nearby airports with instrument procedures:

KGOV - Grayling Army Airfield (26 nm W)
Y31 - West Branch Community Airport (26 nm S)
KHTL - Roscommon County - Blodgett Memorial Airport (30 nm SW)
KGLR - Gaylord Regional Airport (32 nm NW)
KOSC - Oscoda-Wurtsmith Airport (34 nm SE)
 
Loc | Ops | Rwys | IFR | FBO | Links
Com | Nav | Svcs | Stats | Notes
Area around 51M (Oscoda County Dennis Kauffman Memorial Airport)
 
Road maps at: MapQuest Bing Google
 
Aerial photo
WARNING: Photo may not be current or correct
Aerial photo of 51M (Oscoda County Dennis Kauffman Memorial Airport)
Photo by Larry Bugg
Taken in the Fall of 2011
looking west.

Do you have a better or more recent aerial photo of Oscoda County Dennis Kauffman Memorial Airport that you would like to share? If so, please send us your photo.

 
Sectional chart

 
Airport distance calculator
Flying to Oscoda County Dennis Kauffman Memorial Airport? Find the distance to fly.

From to 51M

Sunrise and sunset
Times for 07-Aug-2022
 Local
(UTC-4)
 Zulu
(UTC)
Morning civil twilight05:5809:58
Sunrise06:3110:31
Sunset20:5400:54
Evening civil twilight21:2701:27

Current date and time
Zulu (UTC)  07-Aug-2022 17:34:09
Local (UTC-4)  07-Aug-2022 13:34:09
 
METAR
KY31 
26nm S 
071715Z AUTO 23008KT 10SM BKN024 BKN029 BKN034 30/22 A2999 RMK AO2 T02970219
KGOV 
26nm W 
071715Z AUTO 28007KT 9SM -RA OVC011 24/23 A3000 RMK AO2 RAB15 SLPNO $
KHTL 
30nm SW 
071653Z AUTO 22007KT 10SM FEW018 BKN027 OVC090 26/22 A3003 RMK AO2 SLP162 T02560217
KGLR 
31nm NW 
071700Z AUTO 19008KT 10SM SCT007 OVC013 26/21 A3000 RMK AO2 T02560211
KAPN 
33nm NE 
071654Z AUTO 24005KT 10SM FEW022 29/22 A2997 RMK AO2 SLP145 T02940222
KOSC 
34nm SE 
071715Z AUTO 24013KT 10SM BKN020 BKN029 BKN039 31/23 A2996 RMK AO2 T03140229
KPZQ 
46nm N 
071715Z AUTO 36008KT 10SM OVC005 18/16 A3001 RMK AO2 T01770163
KACB 
49nm W 
071715Z AUTO 00000KT 3SM RA BKN006 BKN020 OVC028 24/23 A2998 RMK AO2 T02400227
TAF
KAPN 
33nm NE 
071249Z 0713/0812 22005KT P6SM VCSH SCT027 BKN050 TEMPO 0713/0716 BKN027 FM071700 20005KT P6SM VCTS OVC016CB FM072000 02006KT P6SM VCTS OVC008CB FM072300 04006KT 4SM BR VCSH OVC006 FM080100 04006KT 4SM BR VCTS OVC005CB
NOTAMs
Click for the latest NOTAMs
NOTAMs are issued by the DoD/FAA and will open in a separate window not controlled by AirNav.

 

 
 

FBO, Fuel Providers, and Aircraft Ground Support

  
 Business Name 
 
 Contact 
 
 Services / Description 
 
Fuel Prices
 
Comments
  
Oscoda County Dennis Kauffman Airport 989-848-2446
989-826-1130
[email]
Airport management, Aviation fuel, Aircraft parking (ramp or tiedown), Hangar leasing / sales, Passenger terminal and lounge, Pilots lounge / snooze room, ...

More info about Oscoda County Dennis Kauffman Airport
Avfuel
100LL
SS $6.75 
 Updated 04-Jul-2022
 
   write
SS=Self service
Update Fuel Prices
 

Would you like to see your business listed on this page?

 If your business provides an interesting product or service to pilots, flight crews, aircraft, or users of the Oscoda County Dennis Kauffman Memorial Airport, you should consider listing it here.  To start the listing process, click on the button below
 
Add a business
 

Other Pages about Oscoda County Dennis Kauffman Memorial Airport

Page from the Michigan Airport Directory (PDF)
 
Update a link
 
Copyright © AirNav, LLC. All rights reserved. Privacy Policy  Contact